User: anonymous   Login
Location: Poughquag
(41.6090°N, 73.6820°W)
Time: 13:26:27
(UTC-05:00)
Language:

A-11 Canister half - Orbit

View from above orbital plane
View from above orbital plane
View from above satellite
View from above satellite

Ground track
Ground track

The orbit data is extracted from the following two-line orbital elements,

1    51U 60009C   20056.76720811 -.00000073 +00000-0 +11434-3 0  9993
2    51 047.2148 336.0413 0103996 188.5862 171.3147 12.18270477650352
Epoch (UTC): 25 February 2020 18:24:46
Eccentricity: 0.0103996
inclination: 47.2148°
perigee height: 1517 km
apogee height: 1683 km
right ascension of ascending node: 336.0413°
argument of perigee: 188.5862°
revolutions per day: 12.18270477
mean anomaly at epoch: 171.3147°
orbit number at epoch: 65035

The dashed part of the orbit path shows where the satellite is in the earth's shadow,  

DLR